FW2562 Weather Reports


Display with metric or nautical units.
time (UTC)temp
F
wind
direction
speed
MPH
gust
MPH
rain 1hr
in
rain 24hr
in
rain mn
in
humidity
%
barometer
mb
20191016014519 59 174 0.0 0.0 0.00 0.00 0.00 87 1015.6
20191016013021 59 174 0.0 2.0 0.00 0.00 0.00 88 1016.0
20191016011515 59 174 0.0 1.0 0.00 0.00 0.00 88 1015.8
20191016010049 60 174 0.0 1.0 0.00 0.00 0.00 87 1015.8
20191016004527 60 174 0.0 1.0 0.00 0.00 0.00 86 1015.8
20191016003035 60 174 0.0 1.0 0.00 0.00 0.00 87 1015.9
20191016001518 60 174 0.0 1.0 0.00 0.00 0.00 86 1016.2
20191016000010 60 174 0.0 1.0 0.00 0.00 0.00 86 1016.2
20191015234529 60 174 0.0 3.0 0.00 0.00 0.00 85 1016.1
20191015233008 61 126 0.0 1.0 0.00 0.00 0.00 84 1016.3
20191015231507 62 126 0.0 2.0 0.00 0.00 0.00 82 1016.5
20191015230003 62 126 0.0 0.0 0.00 0.00 0.00 80 1016.3
20191015224502 63 126 0.0 0.0 0.00 0.00 0.00 78 1016.6
20191015223120 64 126 0.0 1.0 0.00 0.00 0.00 76 1016.5
20191015223001 64 126 0.0 1.0 0.00 0.00 0.00 76 1016.4
20191015221710 64 126 0.0 0.0 0.00 0.00 0.00 77 1016.5
20191015220154 65 126 0.0 1.0 0.00 0.00 0.00 72 1016.4
20191015214652 66 126 0.0 2.0 0.00 0.00 0.00 68 1016.6
20191015213151 67 126 0.0 1.0 0.00 0.00 0.00 65 1016.8
20191015211647 67 126 0.0 1.0 0.00 0.00 0.00 66 1016.9
20191015210227 67 126 0.0 1.0 0.00 0.00 0.00 63 1017.1
20191015204645 66 126 0.0 1.0 0.00 0.00 0.00 62 1017.1
20191015203202 67 126 0.0 2.0 0.00 0.00 0.00 62 1017.3
20191015201807 67 126 0.0 1.0 0.00 0.00 0.00 61 1017.2
20191015200140 68 126 0.0 1.0 0.00 0.00 0.00 59 1017.5
20191015194646 68 126 0.0 1.0 0.00 0.00 0.00 59 1017.5
20191015193144 69 126 0.0 2.0 0.00 0.00 0.00 53 1017.6
20191015191617 69 126 0.0 3.0 0.00 0.00 0.00 52 1017.8
20191015190116 69 81 0.0 2.0 0.00 0.00 0.00 56 1017.9
20191015184614 69 81 0.0 1.0 0.00 0.00 0.00 48 1018.0
20191015183105 69 81 0.0 3.0 0.00 0.00 0.00 49 1018.6
20191015180058 69 60 0.0 3.0 0.00 0.00 0.00 50 1018.8
20191015174609 68 107 1.0 2.0 0.00 0.00 0.00 48 1018.9
20191015173159 67 62 1.0 3.0 0.00 0.00 0.00 49 1019.2
20191015171602 67 15 1.0 4.0 0.00 0.00 0.00 48 1019.3
20191015170114 66 155 0.0 3.0 0.00 0.00 0.00 48 1019.7
20191015164613 64 87 0.0 2.0 0.00 0.00 0.00 50 1019.8
20191015163043 63 140 0.0 4.0 0.00 0.00 0.00 51 1020.0
20191015161529 62 84 1.0 3.0 0.00 0.00 0.00 56 1020.3
20191015160035 61 101 1.0 3.0 0.00 0.00 0.00 56 1020.2
20191015154537 61 11 1.0 3.0 0.00 0.00 0.00 53 1020.5
20191015153046 59 217 0.0 2.0 0.00 0.00 0.00 55 1020.7
20191015151507 58 217 0.0 2.0 0.00 0.00 0.00 61 1020.7
20191015144726 55 262 0.0 1.0 0.00 0.00 0.00 82 1020.8
20191015143139 53 262 0.0 3.0 0.00 0.00 0.00 88 1020.9
20191015141619 50 263 0.0 0.0 0.00 0.00 0.00 92 1020.9
20191015140156 49 263 0.0 0.0 0.00 0.00 0.00 93 1021.1
20191015134621 48 263 0.0 0.0 0.00 0.00 0.00 95 1021.3
20191015133244 46 263 0.0 0.0 0.00 0.00 0.00 95 1021.3
20191015131617 44 263 0.0 0.0 0.00 0.00 0.00 94 1021.1
20191015130230 43 263 0.0 1.0 0.00 0.00 0.00 94 1021.1
20191015124623 43 263 1.0 3.0 0.00 0.00 0.00 94 1020.9
20191015123107 42 263 1.0 2.0 0.00 0.00 0.00 94 1020.7
20191015121635 42 263 0.0 2.0 0.00 0.00 0.00 94 1020.8
20191015120112 42 263 1.0 2.0 0.00 0.00 0.00 94 1020.8
20191015114635 42 263 0.0 2.0 0.00 0.00 0.00 94 1020.8
20191015113140 42 263 1.0 2.0 0.00 0.00 0.00 94 1020.7
20191015111558 42 263 1.0 2.0 0.00 0.00 0.00 94 1020.7
20191015110107 43 263 0.0 0.0 0.00 0.00 0.00 93 1020.6
20191015104611 43 263 0.0 2.0 0.00 0.00 0.00 94 1020.6
20191015103255 43 263 0.0 2.0 0.00 0.00 0.00 93 1020.5
20191015101540 43 263 1.0 3.0 0.00 0.00 0.00 94 1020.5
20191015100048 43 263 0.0 3.0 0.00 0.00 0.00 93 1020.0
20191015094618 44 242 1.0 3.0 0.00 0.00 0.00 93 1019.7
20191015093031 44 241 0.0 0.0 0.00 0.00 0.00 94 1019.6
20191015091524 44 241 0.0 0.0 0.00 0.00 0.00 93 1019.7
20191015090052 44 241 0.0 0.0 0.00 0.00 0.00 93 1019.8
20191015084554 44 241 0.0 0.0 0.00 0.00 0.00 93 1019.6
20191015083044 45 241 0.0 0.0 0.00 0.00 0.00 93 1019.3
20191015081531 45 241 0.0 0.0 0.00 0.00 0.00 93 1019.4
20191015080019 45 241 0.0 0.0 0.00 0.00 0.00 93 1019.4
20191015074522 45 241 0.0 0.0 0.00 0.00 0.00 93 1019.2
20191015073020 46 241 0.0 0.0 0.00 0.00 0.00 93 1019.5
20191015071525 46 241 0.0 0.0 0.00 0.00 0.00 93 1019.5
20191015070017 46 241 0.0 0.0 0.00 0.00 0.00 93 1019.5
20191015064509 47 241 0.0 0.0 0.00 0.00 0.00 93 1019.5
20191015063004 47 241 0.0 0.0 0.00 0.00 0.00 93 1019.5
20191015061504 47 241 0.0 0.0 0.00 0.00 0.00 93 1019.5
20191015060330 47 241 0.0 0.0 0.00 0.00 0.00 93 1019.5
20191015054711 48 241 0.0 0.0 0.00 0.00 0.00 93 1019.3
20191015054500 48 241 0.0 0.0 0.00 0.00 0.00 93 1019.3
20191015053319 48 241 0.0 0.0 0.00 0.00 0.00 93 1019.2
20191015051712 48 241 0.0 0.0 0.00 0.00 0.00 93 1019.3
20191015050227 48 241 0.0 0.0 0.00 0.00 0.00 93 1019.3
20191015044743 49 241 0.0 0.0 0.00 0.00 0.00 93 1019.6
20191015043158 49 241 0.0 0.0 0.00 0.00 0.00 92 1019.3
20191015041622 49 241 1.0 2.0 0.00 0.00 0.00 93 1019.4
20191015040150 49 241 0.0 0.0 0.00 0.00 0.00 92 1019.5
20191015034615 49 241 1.0 3.0 0.00 0.00 0.00 92 1019.5
20191015033122 50 233 0.0 0.0 0.00 0.00 0.00 92 1019.4
20191015031615 50 233 0.0 0.0 0.00 0.00 0.00 92 1019.4
20191015030136 51 233 0.0 0.0 0.00 0.00 0.00 92 1019.5
20191015024629 51 233 0.0 0.0 0.00 0.00 0.00 91 1019.5
20191015023139 52 233 0.0 0.0 0.00 0.00 0.00 91 1019.5
20191015021657 52 233 0.0 0.0 0.00 0.00 0.00 91 1019.6
20191015020133 52 233 0.0 0.0 0.00 0.00 0.00 90 1019.6